Time,TemperatureF,DewpointF,PressureIn,WindDirection,WindDirectionDegrees,WindSpeedMPH,WindSpeedGustMPH,Humidity,HourlyPrecipIn,Conditions,Clouds,dailyrainin,SoftwareType,DateUTC
2013-04-28 00:00:00,50.4,29.3,30.11,SE,142,0.0,0.0,44,0.00,,---,0.00,VWS V14.01,2013-04-28 04:00:00,
2013-04-28 00:01:00,50.4,29.3,30.11,SE,142,0.0,0.0,44,0.00,,---,0.00,VWS V14.01,2013-04-28 04:01:00,
2013-04-28 00:02:00,50.4,29.3,30.11,SE,142,0.0,0.0,44,0.00,,---,0.00,VWS V14.01,2013-04-28 04:02:00,
2013-04-28 00:07:00,50.2,29.1,30.11,SE,142,0.0,0.0,44,0.00,,---,0.00,VWS V14.01,2013-04-28 04:07:00,
2013-04-28 00:12:00,49.8,28.8,30.11,SE,142,0.0,0.0,44,0.00,,---,0.00,VWS V14.01,2013-04-28 04:12:00,
2013-04-28 00:18:00,49.6,28.6,30.11,SE,142,0.0,0.0,44,0.00,,---,0.00,VWS V14.01,2013-04-28 04:18:00,
2013-04-28 00:23:00,49.5,28.5,30.11,SE,142,0.0,0.0,44,0.00,,---,0.00,VWS V14.01,2013-04-28 04:23:00,
2013-04-28 00:28:00,49.3,28.3,30.11,SE,142,0.0,0.0,44,0.00,,---,0.00,VWS V14.01,2013-04-28 04:28:00,
2013-04-28 00:33:00,49.1,28.1,30.11,SE,143,0.0,0.0,44,0.00,,---,0.00,VWS V14.01,2013-04-28 04:33:00,
2013-04-28 00:38:00,48.9,28.5,30.11,SE,142,0.0,0.0,45,0.00,,---,0.00,VWS V14.01,2013-04-28 04:38:00,
2013-04-28 00:43:00,48.7,28.4,30.11,SE,142,0.0,0.0,45,0.00,,---,0.00,VWS V14.01,2013-04-28 04:43:00,
2013-04-28 00:48:00,48.6,28.2,30.11,SE,142,0.0,0.0,45,0.00,,---,0.00,VWS V14.01,2013-04-28 04:48:00,
2013-04-28 00:53:00,48.6,28.7,30.11,SE,142,0.0,0.0,46,0.00,,---,0.00,VWS V14.01,2013-04-28 04:53:00,
2013-04-28 00:58:00,48.6,29.3,30.11,SE,142,0.0,0.0,47,0.00,,---,0.00,VWS V14.01,2013-04-28 04:58:00,
2013-04-28 01:03:00,48.6,29.3,30.11,SE,142,0.0,0.0,47,0.00,,---,0.00,VWS V14.01,2013-04-28 05:03:00,
2013-04-28 01:08:00,48.4,29.1,30.11,SE,142,0.0,0.0,47,0.00,,---,0.00,VWS V14.01,2013-04-28 05:08:00,
2013-04-28 01:13:00,48.4,29.6,30.11,SE,142,0.0,0.0,48,0.00,,---,0.00,VWS V14.01,2013-04-28 05:13:00,
2013-04-28 01:18:00,48.2,29.5,30.11,SE,142,0.0,0.0,48,0.00,,---,0.00,VWS V14.01,2013-04-28 05:18:00,
2013-04-28 01:23:00,48.0,29.8,30.08,SE,142,0.0,0.0,49,0.00,,---,0.00,VWS V14.01,2013-04-28 05:23:00,
2013-04-28 01:28:00,47.8,29.6,30.08,SE,137,0.0,0.0,49,0.00,,---,0.00,VWS V14.01,2013-04-28 05:28:00,
2013-04-28 01:33:00,47.5,29.3,30.08,ESE,122,0.0,0.0,49,0.00,,---,0.00,VWS V14.01,2013-04-28 05:33:00,
2013-04-28 01:38:00,47.3,29.6,30.08,ESE,122,0.0,0.0,50,0.00,,---,0.00,VWS V14.01,2013-04-28 05:38:00,
2013-04-28 01:43:00,47.1,29.5,30.08,ESE,122,0.0,0.0,50,0.00,,---,0.00,VWS V14.01,2013-04-28 05:43:00,
2013-04-28 01:48:00,47.1,29.9,30.08,ESE,122,0.0,0.0,51,0.00,,---,0.00,VWS V14.01,2013-04-28 05:48:00,
2013-04-28 01:53:00,46.9,29.8,30.08,ESE,120,0.0,0.0,51,0.00,,---,0.00,VWS V14.01,2013-04-28 05:53:00,
2013-04-28 01:58:00,46.9,29.8,30.08,ESE,120,0.0,0.0,51,0.00,,---,0.00,VWS V14.01,2013-04-28 05:58:00,
2013-04-28 02:03:00,47.1,29.9,30.08,NE,46,0.0,0.0,51,0.00,,---,0.00,VWS V14.01,2013-04-28 06:03:00,
2013-04-28 02:08:00,47.1,30.4,30.08,NE,46,0.0,0.0,52,0.00,,---,0.00,VWS V14.01,2013-04-28 06:08:00,
2013-04-28 02:14:00,47.3,30.6,30.08,NE,46,0.0,0.0,52,0.00,,---,0.00,VWS V14.01,2013-04-28 06:14:00,
2013-04-28 02:19:00,47.5,30.3,30.08,NE,46,0.0,0.0,51,0.00,,---,0.00,VWS V14.01,2013-04-28 06:19:00,
2013-04-28 02:24:00,47.8,30.6,30.08,NE,46,0.0,0.0,51,0.00,,---,0.00,VWS V14.01,2013-04-28 06:24:00,
2013-04-28 02:29:00,48.2,30.5,30.08,NE,46,0.0,0.0,50,0.00,,---,0.00,VWS V14.01,2013-04-28 06:29:00,
2013-04-28 02:34:00,48.7,30.5,30.08,NE,46,0.0,0.0,49,0.00,,---,0.00,VWS V14.01,2013-04-28 06:34:00,
2013-04-28 02:39:00,49.1,30.8,30.08,NE,46,0.0,0.0,49,0.00,,---,0.00,VWS V14.01,2013-04-28 06:39:00,
2013-04-28 02:44:00,49.5,31.1,30.08,NE,46,0.0,0.0,49,0.00,,---,0.00,VWS V14.01,2013-04-28 06:44:00,
2013-04-28 02:49:00,49.8,30.9,30.08,NE,46,0.0,0.0,48,0.00,,---,0.00,VWS V14.01,2013-04-28 06:49:00,
2013-04-28 02:54:00,50.0,31.1,30.05,NE,45,0.0,0.0,48,0.00,,---,0.00,VWS V14.01,2013-04-28 06:54:00,
2013-04-28 02:59:00,50.2,30.8,30.05,NE,45,0.0,0.0,47,0.00,,---,0.00,VWS V14.01,2013-04-28 06:59:00,
2013-04-28 03:04:00,50.4,30.9,30.05,NE,45,0.0,0.0,47,0.00,,---,0.00,VWS V14.01,2013-04-28 07:04:00,
2013-04-28 03:09:00,50.5,31.1,30.05,NE,45,0.0,0.0,47,0.00,,---,0.00,VWS V14.01,2013-04-28 07:09:00,
2013-04-28 03:14:00,50.7,30.7,30.05,NE,45,0.0,0.0,46,0.00,,---,0.00,VWS V14.01,2013-04-28 07:14:00,
2013-04-28 03:19:00,50.9,30.9,30.05,NE,47,0.0,0.0,46,0.00,,---,0.00,VWS V14.01,2013-04-28 07:19:00,
2013-04-28 03:24:00,51.3,30.7,30.05,ESE,106,0.0,0.0,45,0.00,,---,0.00,VWS V14.01,2013-04-28 07:24:00,
2013-04-28 03:30:00,51.3,30.7,30.05,ESE,106,0.0,0.0,45,0.00,,---,0.00,VWS V14.01,2013-04-28 07:30:00,
2013-04-28 03:35:00,51.4,30.8,30.05,East,95,0.0,0.0,45,0.00,,---,0.00,VWS V14.01,2013-04-28 07:35:00,
2013-04-28 03:40:00,51.4,30.8,30.02,ESE,118,0.0,0.0,45,0.00,,---,0.00,VWS V14.01,2013-04-28 07:40:00,
2013-04-28 03:45:00,51.3,30.7,30.02,ESE,118,0.0,0.0,45,0.00,,---,0.00,VWS V14.01,2013-04-28 07:45:00,
2013-04-28 03:50:00,51.3,30.7,30.02,ESE,118,0.0,0.0,45,0.00,,---,0.00,VWS V14.01,2013-04-28 07:50:00,
2013-04-28 03:55:00,51.3,30.7,30.02,ESE,102,0.0,0.0,45,0.00,,---,0.00,VWS V14.01,2013-04-28 07:55:00,
2013-04-28 04:00:00,51.1,31.0,30.02,East,101,0.0,0.0,46,0.00,,---,0.00,VWS V14.01,2013-04-28 08:00:00,
2013-04-28 04:05:00,51.1,31.0,30.02,ENE,67,0.0,0.0,46,0.00,,---,0.00,VWS V14.01,2013-04-28 08:05:00,
2013-04-28 04:10:00,50.9,30.9,30.02,ENE,68,0.0,0.0,46,0.00,,---,0.00,VWS V14.01,2013-04-28 08:10:00,
2013-04-28 04:15:00,50.9,30.9,30.02,ENE,68,0.0,0.0,46,0.00,,---,0.00,VWS V14.01,2013-04-28 08:15:00,
2013-04-28 04:20:00,50.9,30.9,30.02,ENE,70,0.0,0.0,46,0.00,,---,0.00,VWS V14.01,2013-04-28 08:20:00,
2013-04-28 04:25:00,50.7,30.7,30.02,ENE,70,0.0,0.0,46,0.00,,---,0.00,VWS V14.01,2013-04-28 08:25:00,
2013-04-28 04:30:00,50.7,31.2,30.02,ENE,70,0.0,0.0,47,0.00,,---,0.00,VWS V14.01,2013-04-28 08:30:00,
2013-04-28 04:35:00,50.7,31.2,30.02,ENE,70,0.0,0.0,47,0.00,,---,0.00,VWS V14.01,2013-04-28 08:35:00,
2013-04-28 04:40:00,50.5,31.1,30.02,ENE,70,0.0,0.0,47,0.00,,---,0.00,VWS V14.01,2013-04-28 08:40:00,
2013-04-28 04:46:00,50.4,30.9,30.02,ENE,70,0.0,0.0,47,0.00,,---,0.00,VWS V14.01,2013-04-28 08:46:00,
2013-04-28 04:51:00,50.4,30.9,30.02,ENE,70,0.0,0.0,47,0.00,,---,0.00,VWS V14.01,2013-04-28 08:51:00,
2013-04-28 04:56:00,50.4,30.9,30.02,ENE,70,0.0,0.0,47,0.00,,---,0.00,VWS V14.01,2013-04-28 08:56:00,
2013-04-28 05:01:00,50.4,30.9,30.02,ENE,70,0.0,0.0,47,0.00,,---,0.00,VWS V14.01,2013-04-28 09:01:00,
2013-04-28 05:06:00,50.2,31.3,30.02,ENE,70,0.0,0.0,48,0.00,,---,0.00,VWS V14.01,2013-04-28 09:06:00,
2013-04-28 05:11:00,50.2,31.3,30.02,ENE,70,0.0,0.0,48,0.00,,---,0.00,VWS V14.01,2013-04-28 09:11:00,
2013-04-28 05:16:00,50.2,31.3,30.02,ENE,70,0.0,0.0,48,0.00,,---,0.00,VWS V14.01,2013-04-28 09:16:00,
2013-04-28 05:21:00,50.2,31.3,30.02,ENE,70,0.0,0.0,48,0.00,,---,0.00,VWS V14.01,2013-04-28 09:21:00,
2013-04-28 05:26:00,50.0,31.6,30.02,ENE,71,0.0,0.0,49,0.00,,---,0.00,VWS V14.01,2013-04-28 09:26:00,
2013-04-28 05:31:00,50.0,31.6,30.02,ENE,72,0.0,0.0,49,0.00,,---,0.00,VWS V14.01,2013-04-28 09:31:00,
2013-04-28 05:36:00,50.0,31.6,30.02,ENE,76,0.0,0.0,49,0.00,,---,0.00,VWS V14.01,2013-04-28 09:36:00,
2013-04-28 05:41:00,49.8,31.9,30.02,ENE,76,0.0,0.0,50,0.00,,---,0.00,VWS V14.01,2013-04-28 09:41:00,
2013-04-28 05:47:00,49.8,31.9,30.02,ENE,76,0.0,0.0,50,0.00,,---,0.00,VWS V14.01,2013-04-28 09:47:00,
2013-04-28 05:52:00,49.8,31.9,30.02,ENE,76,0.0,0.0,50,0.00,,---,0.00,VWS V14.01,2013-04-28 09:52:00,
2013-04-28 05:57:00,49.6,31.8,30.02,East,97,0.0,0.0,50,0.00,,---,0.00,VWS V14.01,2013-04-28 09:57:00,
2013-04-28 06:02:00,49.6,32.3,30.02,East,97,0.0,0.0,51,0.00,,---,0.00,VWS V14.01,2013-04-28 10:02:00,
2013-04-28 06:08:00,49.5,32.1,30.02,East,97,0.0,0.0,51,0.00,,---,0.00,VWS V14.01,2013-04-28 10:08:00,
2013-04-28 06:13:00,49.5,32.1,30.02,East,97,0.0,0.0,51,0.00,,---,0.00,VWS V14.01,2013-04-28 10:13:00,
2013-04-28 06:18:00,49.5,32.1,30.02,East,97,0.0,0.0,51,0.00,,---,0.00,VWS V14.01,2013-04-28 10:18:00,
2013-04-28 06:23:00,49.6,32.3,30.02,East,97,0.0,0.0,51,0.00,,---,0.00,VWS V14.01,2013-04-28 10:23:00,
2013-04-28 06:28:00,49.6,32.8,30.02,East,83,0.0,0.0,52,0.00,,---,0.00,VWS V14.01,2013-04-28 10:28:00,
2013-04-28 06:33:00,49.8,32.9,30.02,East,83,0.0,0.0,52,0.00,,---,0.00,VWS V14.01,2013-04-28 10:33:00,
2013-04-28 06:38:00,49.8,32.9,29.99,East,83,0.0,0.0,52,0.00,,---,0.00,VWS V14.01,2013-04-28 10:38:00,
2013-04-28 06:44:00,49.8,32.9,29.99,East,83,0.0,0.0,52,0.00,,---,0.00,VWS V14.01,2013-04-28 10:44:00,
2013-04-28 06:49:00,49.8,32.9,29.99,East,83,0.0,0.0,52,0.00,,---,0.00,VWS V14.01,2013-04-28 10:49:00,
2013-04-28 06:54:00,49.8,32.9,29.99,East,83,0.0,0.0,52,0.00,,---,0.00,VWS V14.01,2013-04-28 10:54:00,
2013-04-28 06:59:00,49.8,32.9,29.99,East,83,0.0,0.0,52,0.00,,---,0.00,VWS V14.01,2013-04-28 10:59:00,
2013-04-28 07:04:00,49.8,32.9,29.99,East,83,0.0,0.0,52,0.00,,---,0.00,VWS V14.01,2013-04-28 11:04:00,
2013-04-28 07:09:00,49.8,32.9,29.99,East,83,0.0,0.0,52,0.00,,---,0.00,VWS V14.01,2013-04-28 11:09:00,
2013-04-28 07:14:00,49.8,32.9,29.99,East,83,0.0,0.0,52,0.00,,---,0.00,VWS V14.01,2013-04-28 11:14:00,
2013-04-28 07:19:00,49.8,32.9,29.99,NE,43,0.0,0.0,52,0.00,,---,0.00,VWS V14.01,2013-04-28 11:19:00,
2013-04-28 07:24:00,50.0,33.1,29.99,East,88,0.0,0.0,52,0.00,,---,0.00,VWS V14.01,2013-04-28 11:24:00,
2013-04-28 07:29:00,50.0,33.1,29.99,East,88,0.0,0.0,52,0.00,,---,0.00,VWS V14.01,2013-04-28 11:29:00,
2013-04-28 07:34:00,50.0,33.1,29.99,East,88,0.0,0.0,52,0.00,,---,0.00,VWS V14.01,2013-04-28 11:34:00,
2013-04-28 07:40:00,50.0,33.6,29.99,East,88,0.0,0.0,53,0.00,,---,0.00,VWS V14.01,2013-04-28 11:40:00,
2013-04-28 07:45:00,50.2,33.7,29.99,East,88,0.0,0.0,53,0.00,,---,0.00,VWS V14.01,2013-04-28 11:45:00,
2013-04-28 07:50:00,50.2,33.7,29.99,East,88,0.0,0.0,53,0.00,,---,0.00,VWS V14.01,2013-04-28 11:50:00,
2013-04-28 07:55:00,50.2,33.7,29.99,East,88,0.0,0.0,53,0.00,,---,0.00,VWS V14.01,2013-04-28 11:55:00,
2013-04-28 08:00:00,50.2,33.7,29.99,East,88,0.0,0.0,53,0.00,,---,0.00,VWS V14.01,2013-04-28 12:00:00,
2013-04-28 08:05:00,50.2,33.7,29.99,East,89,0.0,0.0,53,0.00,,---,0.00,VWS V14.01,2013-04-28 12:05:00,
2013-04-28 08:10:00,50.2,33.7,29.99,East,89,0.0,0.0,53,0.00,,---,0.00,VWS V14.01,2013-04-28 12:10:00,
2013-04-28 08:15:00,50.4,34.4,29.99,East,89,0.0,0.0,54,0.00,,---,0.00,VWS V14.01,2013-04-28 12:15:00,
2013-04-28 08:20:00,50.4,34.4,29.99,East,89,0.0,0.0,54,0.00,,---,0.00,VWS V14.01,2013-04-28 12:20:00,
2013-04-28 08:25:00,50.5,34.5,29.99,East,89,0.0,0.0,54,0.00,,---,0.00,VWS V14.01,2013-04-28 12:25:00,
2013-04-28 08:31:00,50.7,34.7,29.99,ESE,104,0.0,5.4,54,0.00,,---,0.00,VWS V14.01,2013-04-28 12:31:00,
2013-04-28 08:36:00,50.9,35.3,29.99,East,100,0.0,0.0,55,0.00,,---,0.00,VWS V14.01,2013-04-28 12:36:00,
2013-04-28 08:41:00,51.3,35.7,29.99,ESE,116,5.4,5.4,55,0.00,,---,0.00,VWS V14.01,2013-04-28 12:41:00,
2013-04-28 08:46:00,51.4,35.8,29.99,ESE,119,0.0,0.0,55,0.00,,---,0.00,VWS V14.01,2013-04-28 12:46:00,
2013-04-28 08:51:00,51.6,36.0,29.99,East,100,7.2,7.2,55,0.00,,---,0.00,VWS V14.01,2013-04-28 12:51:00,
2013-04-28 08:56:00,51.8,36.2,29.99,ESE,113,7.2,7.2,55,0.00,,---,0.00,VWS V14.01,2013-04-28 12:56:00,
2013-04-28 09:01:00,52.0,36.3,29.99,ESE,117,4.5,7.2,55,0.00,,---,0.00,VWS V14.01,2013-04-28 13:01:00,
2013-04-28 09:06:00,52.3,36.7,29.99,ESE,105,0.0,0.0,55,0.00,,---,0.00,VWS V14.01,2013-04-28 13:06:00,
2013-04-28 09:11:00,52.5,36.8,29.99,ESE,105,0.0,0.0,55,0.00,,---,0.00,VWS V14.01,2013-04-28 13:11:00,
2013-04-28 09:16:00,52.9,37.2,29.99,ESE,112,0.0,6.3,55,0.00,,---,0.00,VWS V14.01,2013-04-28 13:16:00,
2013-04-28 09:21:00,53.2,37.5,29.99,SE,126,0.0,6.3,55,0.00,,---,0.00,VWS V14.01,2013-04-28 13:21:00,
2013-04-28 09:27:00,53.4,37.7,29.99,ESE,116,6.3,6.3,55,0.00,,---,0.00,VWS V14.01,2013-04-28 13:27:00,
2013-04-28 09:32:00,53.8,38.0,29.99,ESE,119,5.4,5.4,55,0.00,,---,0.00,VWS V14.01,2013-04-28 13:32:00,
2013-04-28 09:37:00,54.0,38.2,29.99,ESE,121,5.4,6.3,55,0.00,,---,0.00,VWS V14.01,2013-04-28 13:37:00,
2013-04-28 09:42:00,54.0,38.2,29.99,ESE,120,4.5,4.5,55,0.00,,---,0.00,VWS V14.01,2013-04-28 13:42:00,
2013-04-28 09:47:00,54.1,38.3,29.99,SE,124,0.0,5.4,55,0.00,,---,0.00,VWS V14.01,2013-04-28 13:47:00,
2013-04-28 09:52:00,54.3,38.5,29.99,ESE,114,5.4,5.4,55,0.00,,---,0.00,VWS V14.01,2013-04-28 13:52:00,
2013-04-28 09:57:00,54.5,38.7,29.99,East,95,0.0,7.2,55,0.00,,---,0.00,VWS V14.01,2013-04-28 13:57:00,
2013-04-28 10:03:00,54.5,39.1,29.99,SSE,158,4.5,4.5,56,0.00,,---,0.00,VWS V14.01,2013-04-28 14:03:00,
2013-04-28 10:08:00,54.7,39.8,29.99,East,95,0.0,0.0,57,0.00,,---,0.00,VWS V14.01,2013-04-28 14:08:00,
2013-04-28 10:13:00,54.7,40.2,29.99,ESE,122,4.5,5.4,58,0.00,,---,0.00,VWS V14.01,2013-04-28 14:13:00,
2013-04-28 10:18:00,54.9,40.4,29.99,ESE,116,7.2,7.2,58,0.00,,---,0.00,VWS V14.01,2013-04-28 14:18:00,
2013-04-28 10:23:00,55.0,41.0,29.96,ESE,110,5.4,8.1,59,0.00,,---,0.00,VWS V14.01,2013-04-28 14:23:00,
2013-04-28 10:28:00,55.0,41.4,29.96,SSE,154,4.5,6.3,60,0.00,,---,0.00,VWS V14.01,2013-04-28 14:28:00,
2013-04-28 10:33:00,54.9,42.1,29.96,SSE,156,6.3,6.3,62,0.00,,---,0.00,VWS V14.01,2013-04-28 14:33:00,
2013-04-28 10:38:00,54.7,41.9,29.96,SE,133,6.3,6.3,62,0.00,,---,0.00,VWS V14.01,2013-04-28 14:38:00,
2013-04-28 10:43:00,54.5,42.2,29.96,ESE,114,0.0,0.0,63,0.00,,---,0.00,VWS V14.01,2013-04-28 14:43:00,
2013-04-28 10:48:00,54.3,42.4,29.96,SE,135,8.1,8.1,64,0.00,,---,0.00,VWS V14.01,2013-04-28 14:48:00,
2013-04-28 10:54:00,53.8,42.3,29.96,ESE,117,4.5,5.4,65,0.00,,---,0.00,VWS V14.01,2013-04-28 14:54:00,
2013-04-28 10:59:00,53.4,42.8,29.96,SE,138,7.2,8.1,67,0.00,,---,0.00,VWS V14.01,2013-04-28 14:59:00,
2013-04-28 11:04:00,53.2,43.0,29.96,SE,129,4.5,5.4,68,0.00,,---,0.00,VWS V14.01,2013-04-28 15:04:00,
2013-04-28 11:09:00,53.1,43.2,29.96,SE,124,0.0,0.0,69,0.00,,---,0.00,VWS V14.01,2013-04-28 15:09:00,
2013-04-28 11:14:00,52.9,43.4,29.96,SE,141,0.0,0.0,70,0.00,,---,0.00,VWS V14.01,2013-04-28 15:14:00,
2013-04-28 11:19:00,52.7,43.6,29.96,SE,141,0.0,0.0,71,0.00,,---,0.00,VWS V14.01,2013-04-28 15:19:00,
2013-04-28 11:24:00,52.7,43.9,29.96,SE,141,0.0,0.0,72,0.00,,---,0.00,VWS V14.01,2013-04-28 15:24:00,
2013-04-28 11:30:00,52.7,43.9,29.96,ESE,113,4.5,4.5,72,0.00,,---,0.00,VWS V14.01,2013-04-28 15:30:00,
2013-04-28 11:35:00,52.7,44.3,29.96,South,172,4.5,5.4,73,0.00,,---,0.00,VWS V14.01,2013-04-28 15:35:00,
2013-04-28 11:40:00,52.7,44.3,29.96,ESE,118,0.0,0.0,73,0.00,,---,0.00,VWS V14.01,2013-04-28 15:40:00,
2013-04-28 11:45:00,52.5,44.5,29.96,SE,128,0.0,0.0,74,0.00,,---,0.00,VWS V14.01,2013-04-28 15:45:00,
2013-04-28 11:50:00,52.5,44.5,29.96,East,95,7.2,8.1,74,0.04,,---,0.04,VWS V14.01,2013-04-28 15:50:00,
2013-04-28 11:55:00,52.5,44.8,29.96,East,95,0.0,0.0,75,0.04,,---,0.04,VWS V14.01,2013-04-28 15:55:00,
2013-04-28 12:00:00,52.5,45.2,29.96,East,95,4.5,5.4,76,0.04,,---,0.04,VWS V14.01,2013-04-28 16:00:00,
2013-04-28 12:05:00,52.5,45.2,29.96,ESE,117,0.0,0.0,76,0.04,,---,0.04,VWS V14.01,2013-04-28 16:05:00,
2013-04-28 12:10:00,52.7,45.7,29.96,ESE,122,0.0,0.0,77,0.08,,---,0.08,VWS V14.01,2013-04-28 16:10:00,
2013-04-28 12:15:00,52.7,46.0,29.96,ESE,112,5.4,5.4,78,0.08,,---,0.08,VWS V14.01,2013-04-28 16:15:00,
2013-04-28 12:20:00,52.5,45.9,29.96,SE,127,5.4,6.3,78,0.08,,---,0.08,VWS V14.01,2013-04-28 16:20:00,
2013-04-28 12:25:00,52.5,46.2,29.93,East,99,7.2,7.2,79,0.08,,---,0.08,VWS V14.01,2013-04-28 16:25:00,
2013-04-28 12:30:00,52.5,46.2,29.93,SSE,161,7.2,7.2,79,0.08,,---,0.08,VWS V14.01,2013-04-28 16:30:00,
2013-04-28 12:36:00,52.3,46.4,29.93,ESE,119,5.4,5.4,80,0.12,,---,0.12,VWS V14.01,2013-04-28 16:36:00,
2013-04-28 12:41:00,52.3,46.7,29.93,SSE,159,5.4,7.2,81,0.12,,---,0.12,VWS V14.01,2013-04-28 16:41:00,
2013-04-28 12:46:00,52.3,46.7,29.93,SE,133,0.0,0.0,81,0.12,,---,0.12,VWS V14.01,2013-04-28 16:46:00,
2013-04-28 12:51:00,52.3,46.7,29.93,ENE,72,0.0,0.0,81,0.08,,---,0.12,VWS V14.01,2013-04-28 16:51:00,
2013-04-28 12:56:00,52.3,47.0,29.93,SE,141,0.0,5.4,82,0.08,,---,0.12,VWS V14.01,2013-04-28 16:56:00,
2013-04-28 13:01:00,52.3,47.0,29.93,ESE,119,5.4,5.4,82,0.08,,---,0.12,VWS V14.01,2013-04-28 17:01:00,
2013-04-28 13:06:00,52.3,47.3,29.93,SE,142,0.0,5.4,83,0.08,,---,0.12,VWS V14.01,2013-04-28 17:06:00,
2013-04-28 13:12:00,52.3,47.3,29.93,ESE,103,0.0,4.5,83,0.04,,---,0.12,VWS V14.01,2013-04-28 17:12:00,
2013-04-28 13:17:00,52.3,47.3,29.93,ESE,109,6.3,8.1,83,0.04,,---,0.12,VWS V14.01,2013-04-28 17:17:00,
2013-04-28 13:22:00,52.3,47.7,29.93,ESE,107,0.0,0.0,84,0.04,,---,0.12,VWS V14.01,2013-04-28 17:22:00,
2013-04-28 13:27:00,52.3,47.7,29.93,ESE,107,0.0,0.0,84,0.04,,---,0.12,VWS V14.01,2013-04-28 17:27:00,
2013-04-28 13:32:00,52.3,47.7,29.93,ESE,111,6.3,7.2,84,0.04,,---,0.12,VWS V14.01,2013-04-28 17:32:00,
2013-04-28 13:37:00,52.3,47.7,29.93,ESE,114,7.2,7.2,84,0.00,,---,0.12,VWS V14.01,2013-04-28 17:37:00,
2013-04-28 13:43:00,52.3,48.0,29.93,SE,124,5.4,5.4,85,0.00,,---,0.12,VWS V14.01,2013-04-28 17:43:00,
2013-04-28 13:48:00,52.5,48.2,29.93,ESE,123,0.0,0.0,85,0.00,,---,0.12,VWS V14.01,2013-04-28 17:48:00,
2013-04-28 13:53:00,52.5,48.2,29.93,ESE,115,7.2,7.2,85,0.00,,---,0.12,VWS V14.01,2013-04-28 17:53:00,
2013-04-28 13:58:00,52.5,48.2,29.93,ESE,105,6.3,6.3,85,0.00,,---,0.12,VWS V14.01,2013-04-28 17:58:00,
2013-04-28 14:03:00,52.5,48.2,29.93,SE,127,0.0,0.0,85,0.04,,---,0.16,VWS V14.01,2013-04-28 18:03:00,
2013-04-28 14:08:00,52.5,48.5,29.93,ESE,108,5.4,5.4,86,0.04,,---,0.16,VWS V14.01,2013-04-28 18:08:00,
2013-04-28 14:13:00,52.5,48.5,29.93,East,98,0.0,0.0,86,0.04,,---,0.16,VWS V14.01,2013-04-28 18:13:00,
2013-04-28 14:18:00,52.5,48.5,29.93,East,79,5.4,7.2,86,0.04,,---,0.16,VWS V14.01,2013-04-28 18:18:00,
2013-04-28 14:23:00,52.5,48.8,29.90,ESE,102,4.5,4.5,87,0.04,,---,0.16,VWS V14.01,2013-04-28 18:23:00,
2013-04-28 14:28:00,52.5,48.8,29.90,ESE,102,0.0,0.0,87,0.04,,---,0.16,VWS V14.01,2013-04-28 18:28:00,
2013-04-28 14:33:00,52.5,48.8,29.90,ESE,102,0.0,4.5,87,0.04,,---,0.16,VWS V14.01,2013-04-28 18:33:00,
2013-04-28 14:38:00,52.5,49.1,29.90,East,101,0.0,0.0,88,0.04,,---,0.16,VWS V14.01,2013-04-28 18:38:00,
2013-04-28 14:43:00,52.5,49.1,29.90,East,101,0.0,4.5,88,0.04,,---,0.16,VWS V14.01,2013-04-28 18:43:00,
2013-04-28 14:48:00,52.5,49.1,29.90,SSE,147,5.4,5.4,88,0.04,,---,0.16,VWS V14.01,2013-04-28 18:48:00,
2013-04-28 14:53:00,52.5,49.1,29.90,ESE,115,5.4,5.4,88,0.04,,---,0.16,VWS V14.01,2013-04-28 18:53:00,
2013-04-28 14:59:00,52.7,49.5,29.90,ESE,106,0.0,0.0,89,0.04,,---,0.16,VWS V14.01,2013-04-28 18:59:00,
2013-04-28 15:04:00,52.7,49.5,29.90,ESE,108,0.0,4.5,89,0.00,,---,0.16,VWS V14.01,2013-04-28 19:04:00,
2013-04-28 15:09:00,52.7,49.5,29.90,ESE,110,0.0,0.0,89,0.00,,---,0.16,VWS V14.01,2013-04-28 19:09:00,
2013-04-28 15:14:00,52.7,49.5,29.90,ESE,116,0.0,0.0,89,0.00,,---,0.16,VWS V14.01,2013-04-28 19:14:00,
2013-04-28 15:19:00,52.7,49.5,29.90,ESE,111,0.0,0.0,89,0.00,,---,0.16,VWS V14.01,2013-04-28 19:19:00,
2013-04-28 15:24:00,52.9,50.0,29.90,ESE,113,0.0,0.0,90,0.00,,---,0.16,VWS V14.01,2013-04-28 19:24:00,
2013-04-28 15:29:00,52.9,50.0,29.90,SSE,153,0.0,0.0,90,0.00,,---,0.16,VWS V14.01,2013-04-28 19:29:00,
2013-04-28 15:34:00,52.9,50.0,29.90,SSE,153,0.0,0.0,90,0.00,,---,0.16,VWS V14.01,2013-04-28 19:34:00,
2013-04-28 15:39:00,52.9,50.0,29.90,East,90,0.0,0.0,90,0.00,,---,0.16,VWS V14.01,2013-04-28 19:39:00,
2013-04-28 15:44:00,53.1,50.2,29.90,East,90,0.0,0.0,90,0.00,,---,0.16,VWS V14.01,2013-04-28 19:44:00,
2013-04-28 15:49:00,53.1,50.2,29.90,East,90,0.0,0.0,90,0.00,,---,0.16,VWS V14.01,2013-04-28 19:49:00,
2013-04-28 15:54:00,53.1,50.5,29.90,ESE,117,0.0,6.3,91,0.00,,---,0.16,VWS V14.01,2013-04-28 19:54:00,
2013-04-28 15:59:00,53.2,50.7,29.90,ESE,116,0.0,0.0,91,0.00,,---,0.08,VWS V14.01,2013-04-28 19:59:00,
2013-04-28 16:04:00,53.2,50.7,29.90,SSE,163,5.4,5.4,91,0.00,,---,0.16,VWS V14.01,2013-04-28 20:04:00,
2013-04-28 16:09:00,53.2,50.7,29.90,East,98,0.0,0.0,91,0.00,,---,0.16,VWS V14.01,2013-04-28 20:09:00,
2013-04-28 16:14:00,53.2,50.7,29.90,East,99,0.0,0.0,91,0.00,,---,0.16,VWS V14.01,2013-04-28 20:14:00,
2013-04-28 16:19:00,53.2,50.7,29.90,ESE,103,4.5,4.5,91,0.04,,---,0.20,VWS V14.01,2013-04-28 20:19:00,
2013-04-28 16:24:00,53.2,50.7,29.87,ESE,104,5.4,5.4,91,0.04,,---,0.20,VWS V14.01,2013-04-28 20:24:00,
2013-04-28 16:29:00,53.2,51.0,29.87,SE,133,6.3,6.3,92,0.04,,---,0.20,VWS V14.01,2013-04-28 20:29:00,
2013-04-28 16:34:00,53.2,51.0,29.87,ESE,115,0.0,4.5,92,0.04,,---,0.20,VWS V14.01,2013-04-28 20:34:00,
2013-04-28 16:39:00,53.2,51.0,29.87,ESE,104,0.0,0.0,92,0.04,,---,0.20,VWS V14.01,2013-04-28 20:39:00,
2013-04-28 16:44:00,53.4,51.2,29.87,ESE,105,0.0,0.0,92,0.04,,---,0.20,VWS V14.01,2013-04-28 20:44:00,
2013-04-28 16:50:00,53.4,51.2,29.87,ESE,104,0.0,0.0,92,0.04,,---,0.20,VWS V14.01,2013-04-28 20:50:00,
2013-04-28 16:55:00,53.4,51.2,29.87,ESE,104,0.0,0.0,92,0.04,,---,0.20,VWS V14.01,2013-04-28 20:55:00,
2013-04-28 17:00:00,53.4,51.5,29.87,ESE,105,4.5,4.5,93,0.04,,---,0.20,VWS V14.01,2013-04-28 21:00:00,
2013-04-28 17:05:00,53.6,51.3,29.87,ESE,104,0.0,0.0,92,0.04,,---,0.20,VWS V14.01,2013-04-28 21:05:00,
2013-04-28 17:10:00,53.6,51.3,29.87,ESE,110,0.0,0.0,92,0.04,,---,0.20,VWS V14.01,2013-04-28 21:10:00,
2013-04-28 17:15:00,53.6,51.3,29.87,ESE,118,8.9,8.9,92,0.08,,---,0.24,VWS V14.01,2013-04-28 21:15:00,
2013-04-28 17:20:00,53.6,51.6,29.87,ESE,114,4.5,6.3,93,0.04,,---,0.24,VWS V14.01,2013-04-28 21:20:00,
2013-04-28 17:25:00,53.6,51.6,29.87,ESE,114,0.0,0.0,93,0.04,,---,0.24,VWS V14.01,2013-04-28 21:25:00,
2013-04-28 17:30:00,53.6,51.6,29.87,ESE,114,0.0,0.0,93,0.04,,---,0.24,VWS V14.01,2013-04-28 21:30:00,
2013-04-28 17:35:00,53.6,51.6,29.87,ESE,114,0.0,0.0,93,0.04,,---,0.24,VWS V14.01,2013-04-28 21:35:00,
2013-04-28 17:40:00,53.4,51.5,29.87,ESE,114,0.0,0.0,93,0.04,,---,0.24,VWS V14.01,2013-04-28 21:40:00,
2013-04-28 17:46:00,53.4,51.5,29.87,ESE,114,0.0,0.0,93,0.04,,---,0.24,VWS V14.01,2013-04-28 21:46:00,
2013-04-28 17:51:00,53.4,51.7,29.87,ESE,108,0.0,0.0,94,0.04,,---,0.24,VWS V14.01,2013-04-28 21:51:00,
2013-04-28 17:56:00,53.4,51.7,29.87,ESE,107,0.0,0.0,94,0.04,,---,0.24,VWS V14.01,2013-04-28 21:56:00,
2013-04-28 18:01:00,53.6,51.6,29.87,ESE,107,0.0,0.0,93,0.04,,---,0.24,VWS V14.01,2013-04-28 22:01:00,
2013-04-28 18:06:00,53.6,51.9,29.87,ESE,107,0.0,0.0,94,0.04,,---,0.24,VWS V14.01,2013-04-28 22:06:00,
2013-04-28 18:11:00,53.6,51.9,29.87,ESE,108,0.0,0.0,94,0.04,,---,0.24,VWS V14.01,2013-04-28 22:11:00,
2013-04-28 18:16:00,53.6,51.9,29.87,ESE,107,0.0,0.0,94,0.00,,---,0.24,VWS V14.01,2013-04-28 22:16:00,
2013-04-28 18:21:00,53.6,51.9,29.87,ESE,107,0.0,0.0,94,0.00,,---,0.24,VWS V14.01,2013-04-28 22:21:00,
2013-04-28 18:26:00,53.8,52.1,29.87,ENE,78,0.0,0.0,94,0.00,,---,0.24,VWS V14.01,2013-04-28 22:26:00,
2013-04-28 18:31:00,53.8,52.1,29.87,ESE,105,0.0,0.0,94,0.00,,---,0.24,VWS V14.01,2013-04-28 22:31:00,
2013-04-28 18:36:00,53.8,52.1,29.87,ESE,105,0.0,0.0,94,0.00,,---,0.24,VWS V14.01,2013-04-28 22:36:00,
2013-04-28 18:41:00,53.8,52.1,29.87,ESE,105,0.0,0.0,94,0.00,,---,0.24,VWS V14.01,2013-04-28 22:41:00,
2013-04-28 18:46:00,53.8,52.1,29.87,ESE,105,0.0,0.0,94,0.00,,---,0.24,VWS V14.01,2013-04-28 22:46:00,
2013-04-28 18:51:00,53.8,52.1,29.87,ESE,105,0.0,0.0,94,0.00,,---,0.24,VWS V14.01,2013-04-28 22:51:00,
2013-04-28 18:56:00,54.0,52.3,29.87,ESE,105,0.0,0.0,94,0.04,,---,0.28,VWS V14.01,2013-04-28 22:56:00,
2013-04-28 19:01:00,54.0,52.3,29.87,ESE,105,0.0,0.0,94,0.04,,---,0.28,VWS V14.01,2013-04-28 23:01:00,
2013-04-28 19:06:00,54.0,52.3,29.87,ESE,105,0.0,0.0,94,0.04,,---,0.28,VWS V14.01,2013-04-28 23:06:00,
2013-04-28 19:12:00,54.0,52.3,29.84,ESE,105,0.0,0.0,94,0.04,,---,0.28,VWS V14.01,2013-04-28 23:12:00,
2013-04-28 19:17:00,54.0,52.3,29.84,ESE,105,0.0,0.0,94,0.04,,---,0.28,VWS V14.01,2013-04-28 23:17:00,
2013-04-28 19:22:00,54.0,52.3,29.84,ESE,105,0.0,0.0,94,0.04,,---,0.28,VWS V14.01,2013-04-28 23:22:00,
2013-04-28 19:27:00,54.0,52.6,29.84,ESE,110,5.4,8.1,95,0.04,,---,0.28,VWS V14.01,2013-04-28 23:27:00,
2013-04-28 19:32:00,54.1,52.7,29.84,ESE,110,0.0,0.0,95,0.04,,---,0.28,VWS V14.01,2013-04-28 23:32:00,
2013-04-28 19:37:00,54.1,52.7,29.84,ESE,110,0.0,0.0,95,0.04,,---,0.28,VWS V14.01,2013-04-28 23:37:00,
2013-04-28 19:42:00,54.1,52.7,29.84,ESE,110,0.0,0.0,95,0.04,,---,0.28,VWS V14.01,2013-04-28 23:42:00,
2013-04-28 19:47:00,54.1,52.7,29.84,ESE,117,0.0,0.0,95,0.04,,---,0.28,VWS V14.01,2013-04-28 23:47:00,
2013-04-28 19:52:00,54.1,52.7,29.84,ESE,117,0.0,0.0,95,0.04,,---,0.28,VWS V14.01,2013-04-28 23:52:00,
2013-04-28 19:58:00,54.1,52.7,29.84,ESE,117,0.0,0.0,95,0.00,,---,0.28,VWS V14.01,2013-04-28 23:58:00,
2013-04-28 20:03:00,54.1,52.7,29.84,ESE,117,0.0,0.0,95,0.00,,---,0.28,VWS V14.01,2013-04-29 00:03:00,
2013-04-28 20:08:00,54.1,52.7,29.84,ESE,117,0.0,0.0,95,0.00,,---,0.28,VWS V14.01,2013-04-29 00:08:00,
2013-04-28 20:13:00,54.1,52.7,29.84,ESE,117,0.0,0.0,95,0.00,,---,0.28,VWS V14.01,2013-04-29 00:13:00,
2013-04-28 20:18:00,54.1,52.7,29.84,ESE,117,0.0,0.0,95,0.00,,---,0.28,VWS V14.01,2013-04-29 00:18:00,
2013-04-28 20:23:00,54.1,52.7,29.84,ESE,117,0.0,0.0,95,0.00,,---,0.28,VWS V14.01,2013-04-29 00:23:00,
2013-04-28 20:28:00,54.1,52.7,29.84,ESE,117,0.0,0.0,95,0.00,,---,0.28,VWS V14.01,2013-04-29 00:28:00,
2013-04-28 20:33:00,54.1,52.7,29.84,ESE,117,0.0,0.0,95,0.00,,---,0.28,VWS V14.01,2013-04-29 00:33:00,
2013-04-28 20:38:00,54.1,52.7,29.84,ESE,117,0.0,5.4,95,0.00,,---,0.28,VWS V14.01,2013-04-29 00:38:00,
2013-04-28 20:44:00,54.1,52.7,29.84,ESE,117,0.0,0.0,95,0.00,,---,0.28,VWS V14.01,2013-04-29 00:44:00,
2013-04-28 20:49:00,54.1,52.7,29.84,ESE,111,0.0,0.0,95,0.00,,---,0.28,VWS V14.01,2013-04-29 00:49:00,
2013-04-28 20:54:00,54.1,52.7,29.84,ESE,111,0.0,0.0,95,0.00,,---,0.28,VWS V14.01,2013-04-29 00:54:00,
2013-04-28 20:59:00,54.1,52.7,29.84,ESE,111,0.0,4.5,95,0.00,,---,0.28,VWS V14.01,2013-04-29 00:59:00,
2013-04-28 21:04:00,54.1,52.7,29.84,ESE,111,0.0,0.0,95,0.00,,---,0.28,VWS V14.01,2013-04-29 01:04:00,
2013-04-28 21:09:00,54.1,53.0,29.84,ESE,111,0.0,0.0,96,0.00,,---,0.28,VWS V14.01,2013-04-29 01:09:00,
2013-04-28 21:14:00,54.0,52.8,29.84,ESE,111,0.0,0.0,96,0.00,,---,0.28,VWS V14.01,2013-04-29 01:14:00,
2013-04-28 21:19:00,54.0,52.8,29.84,ESE,111,0.0,0.0,96,0.00,,---,0.28,VWS V14.01,2013-04-29 01:19:00,
2013-04-28 21:24:00,54.0,52.8,29.84,ESE,111,0.0,0.0,96,0.00,,---,0.28,VWS V14.01,2013-04-29 01:24:00,
2013-04-28 21:29:00,54.0,52.8,29.84,ESE,111,0.0,0.0,96,0.00,,---,0.28,VWS V14.01,2013-04-29 01:29:00,
2013-04-28 21:35:00,54.0,52.8,29.84,ESE,111,0.0,0.0,96,0.00,,---,0.28,VWS V14.01,2013-04-29 01:35:00,
2013-04-28 21:40:00,54.0,52.8,29.87,ESE,111,0.0,0.0,96,0.00,,---,0.28,VWS V14.01,2013-04-29 01:40:00,
2013-04-28 21:45:00,54.0,52.8,29.87,ESE,111,0.0,0.0,96,0.00,,---,0.28,VWS V14.01,2013-04-29 01:45:00,
2013-04-28 21:50:00,53.8,52.7,29.87,ESE,111,0.0,0.0,96,0.00,,---,0.28,VWS V14.01,2013-04-29 01:50:00,
2013-04-28 21:55:00,53.8,52.7,29.87,ESE,111,0.0,0.0,96,0.00,,---,0.28,VWS V14.01,2013-04-29 01:55:00,
2013-04-28 22:00:00,53.8,52.7,29.87,ESE,111,0.0,0.0,96,0.00,,---,0.28,VWS V14.01,2013-04-29 02:00:00,
2013-04-28 22:05:00,53.8,52.7,29.87,ESE,111,0.0,0.0,96,0.00,,---,0.28,VWS V14.01,2013-04-29 02:05:00,
2013-04-28 22:10:00,53.6,52.5,29.84,ESE,111,0.0,0.0,96,0.00,,---,0.28,VWS V14.01,2013-04-29 02:10:00,
2013-04-28 22:15:00,53.6,52.5,29.84,ESE,111,0.0,0.0,96,0.00,,---,0.28,VWS V14.01,2013-04-29 02:15:00,
2013-04-28 22:20:00,53.6,52.5,29.84,ESE,111,0.0,0.0,96,0.00,,---,0.28,VWS V14.01,2013-04-29 02:20:00,
2013-04-28 22:25:00,53.6,52.5,29.84,ESE,111,0.0,0.0,96,0.00,,---,0.28,VWS V14.01,2013-04-29 02:25:00,
2013-04-28 22:30:00,53.6,52.5,29.84,ESE,112,0.0,0.0,96,0.00,,---,0.28,VWS V14.01,2013-04-29 02:30:00,
2013-04-28 22:36:00,53.6,52.5,29.84,ESE,112,0.0,0.0,96,0.00,,---,0.28,VWS V14.01,2013-04-29 02:36:00,
2013-04-28 22:41:00,53.6,52.5,29.84,ESE,112,0.0,0.0,96,0.00,,---,0.28,VWS V14.01,2013-04-29 02:41:00,
2013-04-28 22:46:00,53.6,52.5,29.84,ESE,112,0.0,0.0,96,0.00,,---,0.28,VWS V14.01,2013-04-29 02:46:00,
2013-04-28 22:51:00,53.4,52.6,29.84,ESE,112,0.0,0.0,97,0.00,,---,0.28,VWS V14.01,2013-04-29 02:51:00,
2013-04-28 22:56:00,53.4,52.6,29.84,ESE,112,0.0,0.0,97,0.00,,---,0.28,VWS V14.01,2013-04-29 02:56:00,
2013-04-28 23:01:00,53.4,52.6,29.84,ESE,112,0.0,0.0,97,0.00,,---,0.28,VWS V14.01,2013-04-29 03:01:00,
2013-04-28 23:06:00,53.4,52.6,29.84,ESE,112,0.0,0.0,97,0.00,,---,0.28,VWS V14.01,2013-04-29 03:06:00,
2013-04-28 23:11:00,53.4,52.6,29.84,ESE,112,0.0,0.0,97,0.00,,---,0.28,VWS V14.01,2013-04-29 03:11:00,
2013-04-28 23:16:00,53.4,52.6,29.84,ESE,112,0.0,0.0,97,0.00,,---,0.28,VWS V14.01,2013-04-29 03:16:00,
2013-04-28 23:21:00,53.4,52.6,29.84,ESE,112,0.0,0.0,97,0.00,,---,0.28,VWS V14.01,2013-04-29 03:21:00,
2013-04-28 23:26:00,53.4,52.6,29.84,ESE,112,0.0,0.0,97,0.00,,---,0.28,VWS V14.01,2013-04-29 03:26:00,
2013-04-28 23:31:00,53.4,52.6,29.84,ESE,112,0.0,0.0,97,0.00,,---,0.28,VWS V14.01,2013-04-29 03:31:00,
2013-04-28 23:36:00,53.4,52.6,29.84,ESE,112,0.0,0.0,97,0.00,,---,0.28,VWS V14.01,2013-04-29 03:36:00,
2013-04-28 23:41:00,53.4,52.6,29.84,ESE,112,0.0,0.0,97,0.00,,---,0.28,VWS V14.01,2013-04-29 03:41:00,
2013-04-28 23:46:00,53.4,52.6,29.84,ESE,112,0.0,0.0,97,0.00,,---,0.28,VWS V14.01,2013-04-29 03:46:00,
2013-04-28 23:52:00,53.4,52.6,29.84,ESE,112,0.0,0.0,97,0.00,,---,0.28,VWS V14.01,2013-04-29 03:52:00,
2013-04-28 23:57:00,53.4,52.6,29.84,ESE,112,0.0,0.0,97,0.00,,---,0.28,VWS V14.01,2013-04-29 03:57:00,